STARLINK-37022, 68101

Orbit data source: Space-Track

STARLINK-37022, 68101 is a payload satellite owned by SpaceX/Seattle (US) in SSO that was launched on Sun, 08 Mar 2026 UTC via an FALCON 9 launch vehicle from the Air Force Western Test Range (AFWTR). Payload-class satellites include a variety of spacecraft equipped with specific instruments for various scientific and technological missions. These include communications satellites like Starlink; space stations such as the ISS; scientific satellites like the Hubble; Earth observation satellites from companies like Planet Labs, Umbra, and HawkEye 360; GPS; miniature CubeSats for education and research; and military/defense satellites.

Loading next visibility...
Identifier
68101, 2026-044A
Orbit
SSO
Country
Flag of USUS
Related business
Manufacturer
SpaceX/Seattle
Mission
Operational spacecraft
Bus & Motor
STARLINK V2MO, Unknown motor
Mass
575 kg wet, ~530 kg dry
Launch date (UTC)
2026-03-08 (3 months ago)
Launch vehicle
FALCON 9
Launch site
Air Force Western Test Range (AFWTR)
Object type
Payload
Rocket body
Debris
Shape & HBR
Unknown shape, 17.7 m
Radar Cross Section
Large (>1 m²)

Expand to show TLE details & history
Last TLE update: 10 hours ago

TLE from 10 hours ago
0 STARLINK-37022
1 68101U 26044A   26171.43191924  .00005079  00000-0  15952-3 0  9998
2 68101  97.2824 131.6138 0002110 132.9406 227.2014 15.33446605 17320
Epoch: 2026-06-20T10:21Z
TLE epoch observation values (Epoch: 2026-06-20T10:21:57.822Z)
Latitude
-0.00002°
Longitude
67.47625°
Altitude
469.632 km
Speed
7.631 km/s
True Right ascension
08h 46m 27s
True Declination
0° 00' 00"
Sunlit
Object was in daylight at epoch
Visualization orbit readout
Latitude
Unknown
Longitude
Unknown
Altitude
Unknown
Speed
Unknown
Apparent Right ascension
Unknown
Apparent Declination
Unknown
Sunlit
N/A
Visualization observer readout
Local Sidereal Time
07:20:59
Azimuth
Unknown
Elevation
Unknown
Doppler factor
Unknown
Orbital elements
Apogee altitude
463.924 km
Perigee altitude
461.038 km
Semi-major axis
6,840.618 km
Eccentricity
0.00021
Inclination
97.2824°
RAAN
131.6138°
Arg. of periapsis
132.9406°
True anomaly
227.18366°
Mean anomaly
227.2014°
Eccentric anomaly
227.19253°
Mean motion
3.83619 °/min
Orbital period
93.84 mins
BSTAR
0.00015952
Loading maneuver chart data...
Computing Atmospheric mass density...
Loading historical data...
Loading historical data...
Loading historical data...
Loading historical data...
Loading historical data...
Loading historical data...
Loading historical data...

Documentation

Showing up to 5 results
|